User: anonymous   Login
Location: Albany
(35.0000°S, 118.0000°E)
Time: 15:32:59
(UTC-04:00)
Language:

CZ-4B R/B - Orbit

View from above orbital plane
View from above orbital plane
View from above satellite
View from above satellite

Ground track
Ground track

The orbit data is extracted from the following two-line orbital elements,

1 33410U 08053C   16181.89110940 -.00000339  00000-0 -19635-4 0  9991
2 33410  97.6810 150.8931 0120233 293.6908  65.1735 14.97760615418049
Epoch (UTC): 29 June 2016 21:23:11
Eccentricity: 0.0120233
inclination: 97.6810°
perigee height: 490 km
apogee height: 657 km
right ascension of ascending node: 150.8931°
argument of perigee: 293.6908°
revolutions per day: 14.97760615
mean anomaly at epoch: 65.1735°
orbit number at epoch: 41804

The dashed part of the orbit path shows where the satellite is in the earth's shadow,  

DLR